Regional Weather Roundup
Issued by NWS

Home | Current Version | Previous Version | Graphics & Text | Print | Product List | Glossary On
Versions: 1 2 3 4 5 6 7 8 9 10 11 12 13 14 15 16 17 18 19 20 21 22 23 24 25 26 27 28 29 30 31 32 33 34 35 36 37 38 39 40 41 42 43 44 45 46 47 48 49 50
000
ASUS45 KBOU 060007
RWRCO

WEATHER ROUNDUP FOR COLORADO
NATIONAL WEATHER SERVICE DENVER/BOULDER CO
600 PM MDT TUE MAY 05 2015

NOTE: "FAIR" INDICATES FEW OR NO CLOUDS BELOW 12000 FEET WITH NO
SIGNIFICANT WEATHER AND/OR OBSTRUCTIONS TO VISIBILITY.

COZ001>005-013-030-031-060100-
...NORTHWEST COLORADO...

CITY           SKY/WX    TMP DP  RH WIND       PRES   REMARKS
CRAIG          CLOUDY    57  43  59 SW14      29.76R
HAYDEN         CLOUDY    61  37  41 NE13      29.75R
MEEKER         CLOUDY    55  47  74 SW9       29.80F
MOUNT WERNER   NOT AVBL
STEAMBOAT SPGS CLOUDY    57  38  50 SE12G29   29.79R
WALDEN         CLOUDY    43  37  81 S5        29.87R
$$

COZ006>008-011-060100-
...WEST CENTRAL VALLEYS...

CITY           SKY/WX    TMP DP  RH WIND       PRES   REMARKS
GRAND JUNCTION LGT RAIN  54  50  86 N6        29.79S
MONTROSE       CLOUDY    55  48  77 E8        29.84S
EAGLE          LGT RAIN  55  46  71 E7        29.81R
RIFLE          CLOUDY    60  45  57 N3        29.77R
DELTA          CLOUDY    58  49  71 CALM      29.81S
NUCLA          DRIZZLE   57  45  62 CALM      29.86F
$$

COZ017>023-064>068-060100-
...SOUTHWEST COLORADO...

CITY           SKY/WX    TMP DP  RH WIND       PRES   REMARKS
DURANGO        HVY RAIN  49  44  83 SW9       29.88S VSB 3/4
CORTEZ         HVY RAIN  50  46  86 VRB3G21   29.86S VSB 3/4
PAGOSA SPRINGS LGT RAIN  45  43  93 CALM      29.93S
TELLURIDE      CLOUDY    40  40  99 SE3       29.97S
WOLF CREEK PAS NOT AVBL
$$

COZ009-010-012-014-032>034-037-058>063-060100-
...CENTRAL COLORADO...

CITY           SKY/WX    TMP DP  RH WIND       PRES   REMARKS
ASPEN          LGT RAIN  45  41  86 SW3       29.86S
BUENA VISTA    NOT AVBL
COPPER MTN     CLOUDY    37  32  81 E5        30.02S
BERTHOUD PASS  HAZE      28  21  74 E20       30.05F VSB<1/4 WCI  15
COTTONWOOD PAS LGT RAIN  41  37  87 CALM      29.95F VSB<1/4
GUNNISON       CLOUDY    45  39  81 S6        29.91S
KREMMLING      RAIN      52  41  66 N3        29.81F
LEADVILLE      LGT RAIN  37  37 100 S13       29.92S
MONARCH PASS   SNOW      32  32 100 MISG      30.11S VSB<1/4
SALIDA         CLOUDY    47  43  85 CALM      29.95S
SUNLIGHT       CLOUDY    37  37 100 CALM      30.01S VSB 1/4
WILKERSON PASS SNOW      34  32  93 NE3       30.02S VSB 1/4
$$

COZ069>075-060100-
...SAN LUIS VALLEY/SANGRE DE CRISTO MOUNTAINS...

CITY           SKY/WX    TMP DP  RH WIND       PRES   REMARKS
ALAMOSA        CLOUDY    49  41  74 NE7       29.86S
LA VETA PASS   CLOUDY   118 N/A N/A MISG      29.94R FOG
SAGUACHE       DRIZZLE   45  43  93 S6        29.90S
$$

COZ035-036-038>040-060100-
...NORTHERN COLORADO FRONT RANGE...

CITY           SKY/WX    TMP DP  RH WIND       PRES   REMARKS
DENVER INTL AP LGT RAIN  52  49  89 NE12      29.82F
DMNS CITY PARK   N/A     51  50  93 NE2       29.82F
AURORA         NOT AVBL
FRONT RANGE AP LGT RAIN  54  52  94 NE10      29.83F
ERIE MUNI ARPT DRIZZLE   53  51  92 E7        29.83F
BOULDER MUN AP LGT RAIN  52  52 100 NE6       29.83F
CENTENNIAL     LGT RAIN  50  47  89 SW3       29.83F
BROOMFIELD     LGT RAIN  52  50  93 VRB5      29.84F FOG
FORT COLLINS   CLOUDY    52  50  93 E8        29.85S
LONGMONT       DRIZZLE   55  52  90 E7        29.85S
$$

COZ041-046-047-076>085-087-088-060100-
...PIKES PEAK/PALMER DIVIDE AND SOUTHERN FOOTHILLS...

CITY           SKY/WX    TMP DP  RH WIND       PRES   REMARKS
COLO. SPRINGS  LGT RAIN  49  46  90 NW12      29.83F
A. F. ACADEMY  NOT AVBL
ELLICOTT       LGT RAIN N/A N/A N/A N13       29.80F
FALCON         DRIZZLE   48  45  90 NW6       29.85F
FORT CARSON    NOT AVBL
LIMON          RAIN      51  49  92 NW18      29.74F FOG
MONUMENT HILL  LGT RAIN  45  43  93 W7        29.85F
TRINIDAD       CLOUDY    55  48  77 N9        29.80F
$$

COZ042>045-048>051-090-091-060100-
...NORTHEAST COLORADO...

CITY           SKY/WX    TMP DP  RH WIND       PRES   REMARKS
GREELEY ARPT   CLOUDY    54  48  82 E12       29.84F
AKRON          RAIN      53  53 100 E15G24    29.78F VSB 1
BURLINGTON     CLOUDY    56  54  93 SE23G31   29.76F
WRAY           RAIN     N/A N/A N/A E15G23    29.81F
STERLING       RAIN      54  54 100 E8        29.81F
HOLYOKE        NOT AVBL
FORT MORGAN    RAIN      53  51  93 NE12      29.81F
$$

COZ086-089-092>099-060100-
...SOUTHEAST COLORADO...

CITY           SKY/WX    TMP DP  RH WIND       PRES   REMARKS
PUEBLO         LGT RAIN  53  51  93 N12       29.77F
LA JUNTA       CLOUDY    60  53  77 W8        29.74S
LAMAR          CLOUDY    60  52  74 SW20      29.74S
SPRINGFIELD      N/A     57  51  80 S10       29.77S
$$


USA.gov is the U.S. government's official web portal to all federal, state and local government web resources and services.